Other Public Products
Issued by NWS Grand Forks, ND

Home | Current Version | Previous Version | Graphics & Text | Print | Product List | Glossary On
Versions: 1 2 3 4 5 6 7 8 9 10 11 12 13 14 15 16 17 18 19 20 21 22 23 24 25 26 27 28 29 30 31 32 33 34 35 36 37 38 39 40 41 42 43 44 45 46 47 48 49 50
000
FPUS83 KFGF 120010
OPUFGF
PRAIRIE TO PINES WEATHER ROUNDUP
NATIONAL WEATHER SERVICE EASTERN NORTH DAKOTA/GRAND FORKS ND
700 PM CDT FRI JUL 11 2014

 **SATELLITE DATA USED TO AUGMENT SKY COVER AT AUTOMATED STATIONS**
 *****  WEATHER ACROSS EASTERN NORTH DAKOTA  *****

CITY           SKY/WX    TMP DP  RH WIND       PRES   REMARKS
GRAND FORKS    SUNNY     81  58  45 W14G21    29.92R
6HR MIN TEMP:  81; 6HR MAX TEMP:  85;

GRAND FORKS AF SUNNY     80  56  44 W14       29.94S
GRAND CITY NWS   N/A     81 N/A N/A W10         N/A
BUXTON         NOT AVBL
DEVILS LAKE    SUNNY     77  54  44 NW20      29.98S
6HR MIN TEMP:  77; 6HR MAX TEMP:  81;

FARGO          SUNNY     85  55  35 NW14      29.93R
6HR MIN TEMP:  84; 6HR MAX TEMP:  88;

WAHPETON ARPT  PTCLDY    86  55  35 N8        29.94R
$$

 *****  WEATHER ACROSS CENTRAL AND WESTERN NORTH DAKOTA  *****

CITY           SKY/WX    TMP DP  RH WIND       PRES   REMARKS
JAMESTOWN      SUNNY     82  54  37 N12       29.99R
6HR MIN TEMP:  81; 6HR MAX TEMP:  84;

BISMARCK       SUNNY     81  57  43 N12       30.03S
6HR MIN TEMP:  73; 6HR MAX TEMP:  83; 6HR PCP: TRACE;

MINOT          SUNNY     74  52  46 NW15      30.04S
6HR MIN TEMP:  73; 6HR MAX TEMP:  76;

MINOT AFB      SUNNY     75  55  49 NW17      30.03S
6HR MIN TEMP:  73; 6HR MAX TEMP:  75;

GARRISON         N/A     77  59  53 N10       30.05S
6HR MIN TEMP:  75; 6HR MAX TEMP:  80;

WILLISTON      SUNNY     79  47  32 N13       30.07S
6HR MIN TEMP:  75; 6HR MAX TEMP:  82;

DICKINSON      MOSUNNY   74  56  53 NE8       30.08R
6HR MIN TEMP:  74; 6HR MAX TEMP:  81;

HETTINGER      PTSUNNY   75  55  49 NE8       30.10R
6HR MIN TEMP:  75; 6HR MAX TEMP:  84;

$$

 *****  OTHER OBSERVATIONS NORTHEAST NORTH DAKOTA  *****

CITY           SKY/WX    TMP DP  RH WIND       PRES   REMARKS
WALHALLA         N/A     75  55  50 NW13G18     N/A
LANGDON        FAIR      73  52  46 NW16G24   29.99R
CAVALIER       FAIR      77  54  44 NW13      29.94R
GRAFTON        FAIR      77  55  47 NW15      29.94R
CANDO          FAIR      75  57  53 NW13      30.00S
FORT TOTTEN    NOT AVBL
ROLLA          FAIR      72  52  49 NW14      30.02S
RUGBY          FAIR      73  55  53 NW20      30.01R
 ***** THE ABOVE OBSERVATIONS ARE NON NWS ARE NOT QUALITY
        CONTROLLED AND MAY MIS-REPORT RAIN FOR SNOW...
$$

 *****  OTHER OBSERVATIONS SOUTHEAST NORTH DAKOTA *****

CITY           SKY/WX    TMP DP  RH WIND       PRES   REMARKS
COOPERSTOWN    NOT AVBL
VALLEY CITY    FAIR      82  55  39 NW7       29.98S
OAKES          NOT AVBL
GWINNER          N/A     88  63  42 N8        29.97S
SHEYENNE NWR     N/A     87  61  41 N6        29.95S
BUFFALO        NOT AVBL
WYNDMERE       NOT AVBL
 ***** THE ABOVE OBSERVATIONS ARE NON NWS ARE NOT QUALITY
       CONTROLLED AND MAY MIS-REPORT RAIN FOR SNOW...
$$

  *****  WEATHER ACROSS NORTHERN MINNESOTA  *****

CITY           SKY/WX    TMP DP  RH WIND       PRES   REMARKS
FLAG ISLAND    SUNNY     75  55  50 NW18      29.87R
WARROAD        SUNNY     79  54  41 W12G20    29.90R
ROSEAU         SUNNY     79  55  44 NW16      29.90R
HALLOCK        NOT AVBL
THF RVR FALLS  SUNNY     81  52  36 NW13      29.93S
6HR MIN TEMP:  79; 6HR MAX TEMP:  82;

HALSTAD          N/A     82  52  34 NW10        N/A
FOSSTON        SUNNY     81  54  39 W8        29.95S
BAUDETTE       SUNNY     80  52  37 W9G22     29.89R
6HR MIN TEMP:  78; 6HR MAX TEMP:  83;

WASKISH        NOT AVBL
CROOKSTON      SUNNY     81  61  50 NW10      29.93S
$$
  *****  WEATHER ACROSS CENTRAL AND WEST MINNESOTA  *****

CITY           SKY/WX    TMP DP  RH WIND       PRES   REMARKS
BEMIDJI        SUNNY     80  56  43 W9        29.94R
PARK RAPIDS    SUNNY     81  61  50 NW9       29.94R
6HR MIN TEMP:  78; 6HR MAX TEMP:  84;

WADENA         SUNNY     81  64  57 NW8       29.94S
DETROIT LAKES  SUNNY     81  61  50 NW10      29.97R
MOORHEAD       SUNNY     84  61  45 N9        29.94R
FERGUS FALLS   SUNNY     84  61  45 N5        29.93S
ELBOW LAKE     FAIR      82  66  57 N7        29.95R
MORRIS MN      SUNNY     86  70  58 N6        29.93S HX  90
STAPLES        MOSUNNY   82  64  54 NW8       29.94R
WHEATON        SUNNY     82  66  57 N6        29.95R
$$
  *****  WEATHER ELSEWHERE ACROSS MINNESOTA  *****

CITY           SKY/WX    TMP DP  RH WIND       PRES   REMARKS
DULUTH         PTSUNNY   74  67  78 SW8       29.95R
6HR MIN TEMP:  69; 6HR MAX TEMP:  74; 6HR PCP: TRACE;

INTRNTL FALLS  SUNNY     79  56  45 W7        29.88R
6HR MIN TEMP:  68; 6HR MAX TEMP:  82; 6HR PCP:  0.25;

ELY            PTSUNNY   68  59  73 SW7       29.90F
CLOQUET        PTSUNNY   73  68  83 CALM      29.95R
BRAINERD       MOSUNNY   85  71  63 SW8       29.93R HX  90
6HR MIN TEMP:  76; 6HR MAX TEMP:  86;

HIBBING        MOSUNNY   75  62  64 S9        29.91R THUNDER
6HR MIN TEMP:  70; 6HR MAX TEMP:  80; 6HR PCP:  0.01;

ALEXANDRIA     MOSUNNY   84  68  58 NW9       29.97R
6HR MIN TEMP:  78; 6HR MAX TEMP:  85;

SAINT CLOUD    SUNNY     82  71  69 S7        29.94S
6HR MIN TEMP:  73; 6HR MAX TEMP:  83;

MINNEAPOLIS    CLOUDY    79  69  71 S3        29.96S
6HR MIN TEMP:  74; 6HR MAX TEMP:  81;

$$

  *****  WEATHER ACROSS SOUTH DAKOTA  *****

CITY           SKY/WX    TMP DP  RH WIND       PRES   REMARKS
SIOUX FALLS    PTSUNNY   80  72  76 S8        29.97S
6HR MIN TEMP:  80; 6HR MAX TEMP:  85;

BROOKINGS      NOT AVBL
WATERTOWN      PTSUNNY   85  67  54 NE9       29.97R
6HR MIN TEMP:  83; 6HR MAX TEMP:  90;

HURON          SUNNY     88  66  48 N12       29.93R HX  90
6HR MIN TEMP:  88; 6HR MAX TEMP:  94;

SISSETON         N/A     87  68  52 N9        29.93S HX  90
ABERDEEN       SUNNY     85  67  54 NE7       29.96R
6HR MIN TEMP:  83; 6HR MAX TEMP:  87;

MITCHELL       MOSUNNY   87  74  64 S10       29.95R HX  95
PIERRE         PTSUNNY   79  63  57 NE20G36   29.96R
6HR MIN TEMP:  79; 6HR MAX TEMP:  94; 6HR PCP:  0.01;

MOBRIDGE       MOSUNNY   86  63  45 NE5       29.98R
RAPID CITY     CLOUDY    66  63  90 SE9       30.14R THUNDER
6HR MIN TEMP:  65; 6HR MAX TEMP:  89; 6HR PCP:  0.72;

$$

  *****  SOME WEATHER IN NEARBY STATES *****

CITY           SKY/WX    TMP DP  RH WIND       PRES   REMARKS
GLASGOW MT     SUNNY     79  47  32 N10       30.09S
6HR MIN TEMP:  72; 6HR MAX TEMP:  81;

GREAT FALLS MT SUNNY     76  53  44 N7        30.11F
6HR MIN TEMP:  63; 6HR MAX TEMP:  76;

CHEYENNE WY    PTSUNNY   76  57  51 NE10      30.19F
6HR MIN TEMP:  66; 6HR MAX TEMP:  86; 6HR PCP:  0.01;

SCOTTSBLUFF NE CLOUDY    74  65  73 E9        30.08R
6HR MIN TEMP:  71; 6HR MAX TEMP:  90; 6HR PCP: TRACE;

OMAHA NE       PTSUNNY   84  73  69 NE6       29.98R HX  90
6HR MIN TEMP:  76; 6HR MAX TEMP:  84;

DES MOINES IA  CLOUDY    78  71  79 E8        30.01S
6HR MIN TEMP:  73; 6HR MAX TEMP:  78; 6HR PCP: TRACE;

DAVENPORT IA   CLOUDY    77  66  68 S9        30.07R
6HR MIN TEMP:  76; 6HR MAX TEMP:  81; 6HR PCP: TRACE;

CHICAGO IL     CLOUDY    76  57  51 S5        30.11R
6HR MIN TEMP:  72; 6HR MAX TEMP:  81; 6HR PCP:  0.01;

EAU CLAIRE WI  CLOUDY    75  66  73 S9        29.99F
6HR MIN TEMP:  73; 6HR MAX TEMP:  79;

LA CROSSE WI   CLOUDY    78  65  63 S12       30.02R
6HR MIN TEMP:  69; 6HR MAX TEMP:  81; 6HR PCP: TRACE;

$$

  *****  SOME NATIONAL WEATHER *****

CITY           SKY/WX    TMP DP  RH WIND       PRES   REMARKS
LA GUARDIA NY  MOCLDY    78  62  57 SE7       30.19R


USA.gov is the U.S. government's official web portal to all federal, state and local government web resources and services.